Погода в Лисьем

Россия / Курганская область     55°07′56″N   66°46′44″E
темп.,
°C
ветер,
м/с
пор.,
м/с
влажн.,
%
обл.,
%
осадки,
мм/ч
давл.,
гПа
погр.,
м
27 января, ср
ср2723:00−6з6129295 0.0 1028289
02:00−7з5119479 0.0 1028261
05:00−6з5138889 0.0 1028337
08:00−4з61487100 0.0 1028373
11:00−4з5128994 0.0 1029400
14:00−3зюз5118723 0.0 1030391
17:00−6зюз489028 0.0 1030142
20:00−7зюз599392 0.0 1030165
28 января, чт
чт2823:00−9зюз479458 0.0 1030125
02:00−9юз479521 0.0 1030121
05:00−8юз5119433 0.0 1030232
08:00−8юз6119392 0.0 1029259
11:00−6юз7138995 0.0 1029346
14:00−5юз8148699 0.0 1028439
17:00−5юз81689100 0.0 1027474
20:00−5юз81786100 0.0 1026461
29 января, пт
пт2923:00−6зюз81586100 0.0 1026385
02:00−8зюз71387100 0.0 1027318
05:00−10зюз51090100 0.0 1027250
08:00−12юз4791100 0.0 1028143
11:00−10юз5988100 0.0 1028245
14:00−8юз4988100 0.0 1028284
17:00−9юз5989100 0.0 1028201
20:00−10ююз4690100 0.0 1028130
30 января, сб
сб3023:00−11ююз3487100 0.0 102857
02:00−12ю348699 0.0 102750
05:00−12ю348583 0.0 102647
08:00−12ююв458688 0.0 102572
11:00−8ююв588694 0.0 1024254
14:00−6ююв5989100 0.0 1023295
17:00−8ююв4792100 0.0 1022144
20:00−9ююв3691100 0.0 1021106
31 января, вс
вс3123:00−10ююв3492100 0.0 102163
02:00−11ю349299 0.0 102136
05:00−13ю339396 0.0 102023
08:00−12ю2293100 0.0 102021
11:00−10ю1191100 0.0 102051
14:00−8ююз128991 0.0 1020180
17:00−11всв119384 0.0 101921
20:00−13юв01935 0.0 102021